Probability
3 3 0 0 0 0 0 0 0 0 0 0 0 0 0 0 0 0 0 0 0 3 0 3 3 6 0 3 3 0 3 3 3 3 6 3 3 0 3 0 0 0 0
3 0 0 0 0 0 0 0 0 0 0 0 0 0 0 0 0 0 0 0 0 0 0 0 3 3 6 0 0 0 0 3 3 3 3 6 3 0 0 0 0 0 0
0 0 0 0 0 0 0 0 0 0 0 0 0 0 0 0 0 0 0 0 0 0 0 0 3 3 3 3 0 0 0 0 0 0 3 3 3 3 0 0 0 0 0
0 0 0 0 0 0 0 0 0 0 0 0 0 0 0 0 0 0 0 0 0 0 0 0 3 3 3 3 3 0 0 0 0 0 0 0 3 3 0 0 0 0 0
0 0 0 0 0 0 0 0 0 0 0 0 0 0 0 0 0 0 0 0 0 0 0 0 0 0 3 3 3 0 0 0 0 0 0 0 0 0 3 3 0 0 0
0 0 0 0 0 0 0 0 0 0 0 0 0 0 0 0 0 0 0 0 0 0 0 0 0 0 0 0 0 3 0 0 0 0 0 0 0 0 0 0 0 0 0
0 0 0 0 0 0 0 0 0 0 0 0 0 0 0 0 0 0 0 0 0 0 0 0 0 0 0 0 0 0 0 0 0 0 0 0 0 0 0 0 0 0 0
0 0 0 0 0 0 0 0 0 0 0 0 0 0 0 0 0 0 0 0 0 0 0 0 0 0 0 0 0 0 0 0 0 0 0 0 0 0 0 0 0 0 0
0 0 0 0 0 0 0 0 0 0 0 0 0 0 0 0 0 0 0 0 0 0 0 0 0 0 0 0 0 0 0 0 0 0 0 0 0 0 0 0 0 0 0
0 0 0 0 0 0 0 0 0 0 0 0 0 0 0 0 0 0 0 0 0 0 0 0 0 0 0 0 0 0 0 0 0 0 0 0 0 0 0 0 0 0 0
0 0 0 0 0 0 0 0 0 0 0 0 0 0 0 0 0 0 0 0 0 0 0 0 0 0 0 0 0 0 0 0 0 0 0 0 0 0 0 0 0 0 0
0 0 0 0 0 0 0 0 0 0 0 0 0 0 0 0 0 0 0 0 0 0 0 0 0 0 0 0 0 0 0 0 0 0 0 0 0 0 0 0 0 0 0
0 0 0 0 0 0 0 0 0 0 0 0 0 0 0 0 0 0 0 0 0 0 0 0 0 0 0 0 0 0 0 0 0 0 0 0 0 0 0 0 0 0 0
0 0 0 0 0 0 0 0 0 0 0 0 0 0 0 0 0 0 0 0 0 0 0 0 0 0 0 0 0 0 0 0 0 0 0 0 0 0 0 0 0 0 0
0 0 0 0 0 0 0 0 0 0 0 0 0 0 0 0 0 0 0 0 0 0 0 0 0 0 0 0 0 0 0 0 0 0 0 0 0 0 0 0 0 0 0
0 0 0 0 0 0 0 0 0 0 0 0 0 0 0 0 0 0 0 0 0 0 0 0 0 0 0 0 0 0 0 0 0 0 0 0 0 0 0 0 0 0 0
0 0 0 0 0 0 0 0 0 0 0 0 0 0 0 0 0 0 0 0 0 0 0 0 0 0 0 0 0 0 0 0 0 0 0 0 0 0 0 0 0 0 0
0 0 0 0 0 0 0 0 0 0 0 0 0 0 0 0 0 0 0 0 0 0 0 0 0 0 0 0 0 0 0 0 0 0 0 0 0 0 0 0 0 0 0
0 0 0 0 0 0 0 0 0 0 0 0 0 0 0 0 0 0 0 0 0 0 0 0 0 0 0 0 0 0 0 0 0 0 0 0 0 0 0 0 0 0 0
0 0 0 0 0 0 0 0 0 0 0 0 0 0 0 0 0 0 0 0 0 0 0 0 0 0 0 0 0 0 0 0 0 0 0 0 0 0 0 0 0 0 0
0 0 0 0 0 0 0 0 0 0 0 0 0 0 0 0 0 0 0 0 0 0 0 0 0 0 0 0 0 0 0 0 0 0 0 0 0 0 0 0 0 0 0
0 0 0 0 0 0 0 0 0 0 0 0 0 0 0 0 0 0 0 0 0 0 0 0 0 0 0 0 0 0 0 0 0 0 0 0 0 0 0 0 0 0 0
0 0 0 0 0 0 0 0 0 0 0 0 0 0 0 0 0 0 0 0 0 0 0 0 0 0 0 0 0 0 0 0 0 0 0 0 0 0 0 0 0 0 0
0 0 0 0 0 0 0 0 0 0 0 0 0 0 0 0 0 0 0 0 0 0 0 0 0 0 0 0 0 0 0 0 0 0 0 0 0 0 0 0 0 0 0
0 0 0 0 0 0 0 0 0 0 0 0 0 0 0 0 0 0 0 0 0 0 0 0 0 0 0 0 0 0 0 0 0 0 0 0 0 0 0 0 0 0 0
0 0 0 0 0 0 0 0 0 0 0 0 0 0 0 0 0 0 0 0 0 0 0 0 0 0 0 0 0 0 0 0 0 0 0 0 0 0 0 0 0 0 0
Height
5772 5773 5773 5774 5775 5775 5776 5777 5777 5778 5779 5780 5780 5781 5782 5782 5783 5784 5785 5785 5786 5786 5787 5788 5789 5789 5790 5790 5791 5791 5791 5791 5790 5790 5790 5789 5789 5788 5787 5787 5786 5785 5784
5763 5764 5765 5765 5766 5766 5767 5767 5768 5769 5770 5770 5771 5772 5772 5773 5774 5774 5775 5776 5776 5777 5777 5778 5779 5780 5780 5781 5781 5781 5781 5781 5781 5781 5780 5780 5779 5778 5778 5777 5776 5775 5774
5753 5754 5755 5756 5756 5756 5757 5757 5758 5759 5760 5760 5761 5762 5762 5762 5763 5764 5764 5765 5766 5766 5767 5768 5768 5769 5770 5770 5771 5771 5771 5771 5770 5770 5770 5769 5769 5768 5767 5766 5766 5765 5764
5743 5744 5745 5745 5746 5746 5747 5747 5748 5749 5749 5750 5750 5751 5751 5752 5752 5753 5753 5754 5755 5755 5756 5757 5757 5758 5759 5759 5759 5760 5760 5759 5759 5759 5758 5758 5757 5757 5756 5755 5754 5753 5753
5732 5733 5734 5734 5735 5735 5736 5736 5737 5738 5738 5739 5739 5740 5740 5741 5741 5741 5742 5742 5743 5744 5744 5745 5746 5746 5747 5747 5748 5748 5748 5747 5747 5747 5746 5746 5745 5745 5744 5743 5743 5742 5741
5721 5722 5722 5723 5723 5724 5724 5725 5725 5726 5726 5727 5727 5728 5729 5729 5729 5730 5730 5730 5731 5731 5732 5733 5733 5734 5735 5735 5735 5735 5735 5735 5734 5734 5734 5733 5733 5732 5731 5731 5730 5730 5729
5709 5710 5711 5711 5712 5712 5712 5712 5713 5714 5714 5714 5715 5716 5717 5717 5717 5718 5718 5718 5718 5718 5719 5720 5721 5721 5722 5722 5723 5723 5723 5722 5722 5722 5721 5720 5720 5719 5719 5718 5717 5717 5715
5698 5698 5699 5699 5699 5700 5700 5700 5700 5701 5702 5702 5703 5704 5705 5707 5706 5705 5705 5705 5705 5706 5706 5707 5707 5708 5709 5710 5710 5710 5710 5710 5709 5709 5709 5708 5707 5706 5705 5704 5704 5703 5702
5685 5686 5686 5687 5687 5687 5687 5687 5688 5689 5690 5690 5690 5691 5692 5694 5694 5694 5693 5693 5693 5693 5693 5694 5694 5695 5696 5697 5697 5697 5697 5697 5696 5696 5695 5695 5694 5693 5692 5691 5690 5689 5688
5673 5673 5674 5674 5675 5675 5675 5675 5675 5676 5677 5678 5678 5678 5679 5680 5681 5682 5682 5681 5680 5680 5681 5681 5682 5683 5683 5684 5684 5684 5683 5683 5683 5682 5682 5681 5680 5679 5678 5676 5675 5674 5673
5661 5661 5661 5661 5662 5662 5662 5662 5663 5663 5664 5665 5666 5666 5667 5667 5667 5668 5670 5669 5668 5668 5668 5669 5669 5670 5670 5670 5670 5670 5669 5669 5668 5668 5667 5666 5665 5665 5663 5662 5662 5661 5660
5648 5648 5648 5649 5649 5650 5650 5650 5650 5651 5652 5652 5653 5653 5654 5654 5655 5655 5656 5657 5657 5656 5656 5656 5657 5657 5656 5656 5656 5656 5655 5654 5653 5653 5652 5652 5651 5651 5650 5649 5648 5647 5646
5636 5636 5636 5636 5636 5637 5637 5637 5638 5639 5639 5640 5640 5640 5641 5641 5642 5642 5643 5644 5645 5645 5644 5644 5644 5643 5642 5642 5641 5641 5640 5639 5638 5638 5638 5637 5637 5636 5635 5635 5634 5632 5631
5623 5623 5623 5623 5624 5624 5624 5625 5626 5626 5627 5628 5628 5628 5629 5629 5629 5630 5630 5631 5632 5633 5633 5632 5631 5629 5628 5628 5627 5626 5625 5625 5624 5623 5623 5623 5622 5622 5621 5619 5618 5617 5616
5611 5610 5611 5611 5611 5611 5612 5612 5613 5614 5615 5615 5616 5617 5617 5618 5618 5618 5618 5619 5620 5621 5622 5621 5619 5617 5615 5615 5614 5612 5611 5611 5610 5609 5608 5608 5607 5607 5606 5605 5603 5602 5601
5598 5598 5598 5598 5598 5599 5599 5600 5601 5602 5602 5603 5605 5605 5606 5606 5607 5607 5607 5607 5607 5608 5610 5610 5608 5606 5604 5603 5601 5600 5598 5598 5596 5596 5595 5594 5594 5593 5592 5590 5589 5588 5588
5586 5585 5585 5586 5586 5586 5587 5588 5589 5590 5591 5592 5593 5594 5595 5596 5596 5596 5596 5596 5596 5597 5598 5598 5596 5595 5593 5592 5590 5588 5586 5585 5584 5583 5582 5581 5580 5579 5578 5577 5576 5575 5574
5573 5573 5573 5574 5574 5575 5575 5576 5577 5578 5579 5581 5582 5583 5585 5585 5586 5586 5586 5586 5586 5586 5586 5586 5585 5584 5582 5581 5579 5577 5575 5573 5572 5571 5569 5568 5567 5566 5565 5564 5563 5562 5562
5562 5562 5562 5562 5563 5563 5564 5565 5565 5566 5568 5569 5571 5572 5574 5574 5575 5575 5576 5576 5576 5576 5575 5575 5575 5573 5572 5570 5568 5567 5565 5563 5561 5559 5558 5556 5555 5554 5553 5552 5551 5550 5549
5551 5550 5550 5550 5551 5552 5552 5553 5553 5555 5556 5558 5560 5561 5563 5564 5564 5565 5565 5565 5565 5565 5565 5565 5564 5562 5561 5559 5558 5556 5555 5552 5550 5549 5547 5545 5544 5542 5541 5540 5539 5538 5538
5540 5539 5539 5539 5539 5540 5541 5542 5542 5543 5545 5547 5549 5551 5552 5553 5554 5554 5555 5555 5555 5555 5555 5554 5553 5552 5551 5549 5548 5546 5544 5543 5541 5538 5537 5535 5533 5532 5530 5528 5527 5527 5526
5529 5529 5528 5528 5529 5529 5530 5531 5532 5533 5534 5536 5538 5540 5541 5542 5543 5543 5544 5544 5545 5545 5545 5544 5543 5542 5540 5539 5537 5535 5534 5533 5531 5529 5526 5525 5522 5521 5519 5518 5517 5517 5516
5519 5518 5518 5518 5518 5519 5519 5520 5521 5523 5524 5526 5528 5529 5531 5532 5533 5533 5534 5534 5534 5534 5534 5533 5533 5531 5530 5529 5527 5526 5524 5522 5520 5518 5516 5515 5512 5510 5509 5508 5507 5507 5507
5509 5509 5509 5509 5509 5509 5510 5511 5511 5513 5514 5516 5517 5519 5520 5521 5522 5523 5524 5524 5524 5524 5523 5523 5522 5521 5520 5518 5517 5515 5514 5513 5511 5508 5506 5505 5502 5500 5499 5498 5497 5497 5497
5501 5500 5500 5500 5501 5501 5501 5502 5502 5504 5505 5506 5507 5509 5510 5512 5513 5513 5514 5514 5514 5514 5513 5512 5512 5511 5509 5508 5507 5505 5504 5503 5502 5499 5496 5495 5493 5491 5490 5489 5488 5487 5488
5493 5493 5493 5493 5493 5493 5493 5494 5494 5495 5496 5497 5499 5500 5501 5502 5503 5503 5504 5504 5505 5504 5504 5503 5502 5501 5500 5498 5497 5496 5494 5493 5492 5491 5488 5486 5484 5483 5482 5481 5480 5479 5479
Wind_Speed
38 38 38 38 37 37 37 38 38 38 38 38 38 38 38 38 37 37 37 37 37 37 37 37 37 37 37 37 37 37 37 38 38 39 39 39 39 40 40 40 40 40 40
41 41 41 40 40 40 40 40 40 40 40 40 40 40 40 40 40 39 39 39 39 38 38 39 39 39 40 40 39 40 40 40 40 41 41 41 41 41 42 42 42 43 42
43 43 43 43 43 42 42 42 42 43 42 42 42 42 42 42 42 42 41 41 41 41 41 41 41 41 42 43 43 42 42 43 43 43 44 44 44 44 44 44 45 45 45
45 45 45 44 44 44 44 44 44 45 45 44 44 44 45 44 44 43 43 43 43 42 42 43 43 44 45 45 45 45 45 45 46 46 46 46 46 46 47 47 47 47 47
46 46 46 45 45 45 45 46 46 46 46 46 46 46 46 45 45 44 45 45 45 45 45 45 46 46 46 47 47 47 47 47 47 48 48 48 48 48 48 48 48 48 48
46 47 47 46 46 46 47 47 47 47 48 48 47 46 46 46 46 46 47 47 47 47 48 48 48 47 47 47 47 47 47 47 47 48 49 49 49 49 49 49 49 50 50
46 47 47 47 47 48 48 49 49 48 49 49 48 47 46 46 46 47 48 48 49 49 49 48 48 48 48 47 47 47 46 46 47 47 48 49 50 50 50 51 51 52 52
47 47 47 48 49 49 49 50 49 49 49 49 49 48 47 47 47 48 48 48 49 49 49 49 49 49 49 48 48 48 48 48 48 49 49 50 50 51 52 52 53 53 53
48 48 48 48 49 49 49 49 50 50 50 50 50 50 49 48 48 48 48 49 49 50 50 50 49 49 49 48 48 49 49 50 49 50 51 51 51 51 52 52 53 53 53
48 49 49 49 49 49 49 49 50 50 51 51 50 49 49 49 49 48 48 49 49 49 50 50 50 49 50 50 50 50 51 52 52 52 53 53 53 53 52 52 52 52 52
48 48 49 49 49 49 49 50 50 50 50 50 50 50 50 49 49 49 48 49 50 50 50 50 50 50 51 52 52 52 52 54 54 54 54 53 52 52 51 51 52 52 52
47 47 48 49 49 49 50 49 49 49 49 49 50 50 49 49 49 50 49 49 49 49 50 50 50 51 52 53 53 54 54 54 54 53 53 53 52 52 52 52 53 53 53
46 47 48 49 49 50 49 49 48 49 49 49 50 49 49 48 48 49 49 48 48 48 49 50 50 50 51 52 54 55 54 54 54 54 53 53 53 53 53 53 53 53 53
46 47 47 47 48 48 48 48 48 48 48 48 48 48 48 47 47 47 47 47 47 47 48 48 48 48 50 52 53 53 53 53 53 54 53 53 53 52 52 53 54 54 53
45 46 46 46 47 47 47 47 48 48 47 47 46 46 46 46 45 45 45 45 45 44 45 46 47 48 49 50 50 51 51 51 51 52 51 51 51 51 51 53 53 52 51
44 44 44 44 45 46 46 47 47 47 46 45 45 44 43 43 43 43 43 43 43 43 43 44 47 47 48 48 49 49 48 49 49 50 50 50 50 50 50 50 50 49 48
43 43 43 43 43 43 44 45 45 45 45 45 44 43 42 42 41 41 41 41 42 42 42 43 44 45 45 45 45 45 45 46 46 47 47 48 48 48 48 47 47 46 47
42 42 42 42 42 42 42 43 44 44 44 44 43 42 41 41 40 40 40 40 40 40 40 40 41 42 42 42 42 42 42 43 43 44 44 45 45 46 45 44 44 44 45
40 40 41 41 42 42 42 42 43 42 43 42 41 41 40 40 40 40 40 39 39 39 40 40 39 40 40 41 41 42 41 42 41 42 42 43 43 43 42 42 42 42 42
39 39 40 41 41 41 41 41 41 41 41 40 40 39 39 40 40 40 39 39 38 38 39 39 39 39 39 39 40 40 40 40 40 40 41 41 41 40 40 40 40 41 40
38 39 39 40 40 40 39 39 39 39 40 40 39 39 39 39 39 38 38 39 39 38 38 38 38 39 39 38 38 38 38 39 40 39 39 39 38 38 38 37 37 37 37
37 37 37 38 38 38 38 38 38 38 38 38 38 38 38 38 37 38 38 39 39 38 37 37 37 37 37 36 36 36 36 37 38 37 36 36 36 37 36 36 35 35 35
35 35 35 35 35 36 36 36 36 36 37 37 37 37 37 37 36 37 37 38 38 38 38 36 36 36 36 36 35 34 34 35 36 36 34 34 34 35 35 34 33 33 33
31 32 32 32 32 32 33 34 34 34 34 34 35 36 36 36 37 37 37 37 37 37 37 37 36 35 35 35 34 34 34 34 34 34 33 33 33 34 33 33 33 33 32
29 29 29 29 29 29 30 31 31 32 32 32 32 33 34 34 35 35 35 36 36 36 36 36 35 34 34 34 33 33 32 32 31 31 31 31 31 31 31 32 32 32 32
26 26 26 27 26 26 27 28 28 29 30 30 31 31 32 33 33 33 33 34 34 34 34 33 32 32 31 32 32 31 31 30 29 28 28 28 28 28 27 27 28 29 29
Wind_Direction
261 263 263 263 264 264 264 263 263 264 265 265 265 265 265 266 266 267 269 270 270 269 269 269 269 270 271 272 273 273 274 275 276 276 277 277 277 278 279 280 281 281 281
261 263 265 265 265 265 264 263 263 264 265 265 265 265 265 266 266 268 268 269 269 269 269 269 269 270 270 272 273 273 274 275 276 276 277 277 277 278 278 279 280 280 280
262 264 265 265 265 264 264 264 264 264 264 265 265 266 266 266 266 267 268 269 269 268 269 269 269 270 271 272 273 274 274 275 276 276 276 276 276 277 277 278 279 279 279
263 264 264 265 265 265 264 264 265 265 265 265 265 266 266 266 266 267 268 269 268 268 268 269 270 271 272 272 273 274 275 275 276 276 277 276 276 276 277 277 278 278 279
263 264 265 264 264 265 264 264 265 265 265 265 265 266 265 266 266 267 267 268 268 268 268 268 270 271 272 273 274 274 275 275 275 276 276 277 277 276 276 277 277 278 278
263 263 264 264 264 264 265 265 265 265 266 266 266 265 265 266 267 268 268 268 268 267 267 268 270 271 272 273 273 274 275 275 275 275 276 276 277 276 276 276 276 277 278
263 263 263 264 265 265 265 265 265 265 266 266 265 265 265 266 268 268 268 268 268 268 268 268 269 270 271 272 273 273 274 274 274 275 276 277 276 275 276 276 276 276 276
263 263 263 265 265 265 265 265 264 264 265 265 265 265 265 266 268 268 269 269 268 268 268 269 269 270 271 271 272 272 272 274 275 276 276 277 277 276 276 276 276 276 276
263 263 264 265 265 265 265 264 264 264 264 265 266 267 267 267 267 268 269 269 269 269 269 269 269 270 271 271 271 272 272 274 275 276 276 276 277 277 277 277 276 276 276
264 264 264 264 265 265 264 264 265 265 265 265 267 268 269 269 268 268 268 269 269 269 269 269 270 270 270 271 272 273 273 274 274 276 276 277 277 277 277 276 276 276 276
265 264 264 264 266 265 265 264 264 265 265 265 267 268 269 269 270 270 268 268 269 269 269 269 270 271 272 272 272 273 273 274 275 275 275 275 275 276 276 276 277 277 277
265 264 264 265 265 265 265 265 265 265 265 266 267 268 269 269 270 270 270 268 268 269 270 270 271 272 273 272 272 274 274 275 275 275 274 274 274 275 275 276 276 276 276
266 266 265 265 265 265 265 265 265 266 265 266 267 268 268 269 270 270 270 268 268 268 270 271 272 273 274 273 273 274 275 274 274 274 274 274 274 275 275 276 276 276 276
266 266 265 266 266 265 265 265 264 265 266 266 267 268 269 269 270 270 269 269 268 269 270 271 272 274 276 275 274 274 274 274 274 274 274 274 274 274 275 276 276 276 276
266 265 265 265 265 265 265 265 265 265 265 266 267 269 270 269 269 269 269 269 270 268 269 271 274 275 277 276 275 275 275 274 275 275 274 274 275 274 274 276 275 275 275
268 267 266 266 266 266 266 265 265 265 265 265 266 268 269 269 269 269 269 269 269 269 270 272 274 275 277 277 277 277 277 276 275 275 275 275 275 274 275 276 275 275 275
269 268 267 266 266 266 265 265 265 265 264 264 265 266 268 268 269 269 269 268 269 270 271 273 275 275 277 278 277 277 278 277 277 277 276 275 274 275 276 275 274 274 275
269 267 266 265 265 265 265 264 265 265 265 264 264 265 266 267 268 268 268 268 269 270 272 275 276 276 277 278 277 277 278 280 279 278 277 276 276 276 276 275 275 275 276
269 267 266 266 265 265 265 265 266 265 264 264 264 264 264 266 267 268 268 268 269 271 273 275 277 277 278 278 277 277 278 278 278 279 278 278 277 277 277 276 275 276 277
271 270 268 266 265 265 266 266 266 264 263 263 263 263 264 265 267 268 268 269 270 272 274 276 277 276 277 278 279 279 278 279 280 280 279 280 279 278 278 277 277 276 276
272 270 269 266 265 265 265 265 264 263 262 263 263 263 264 265 266 266 267 268 269 272 275 277 276 276 277 279 280 280 280 280 281 280 280 280 279 278 278 277 276 274 274
272 270 268 267 265 264 264 264 264 264 263 263 262 262 263 265 266 267 268 269 270 272 275 276 277 277 277 279 280 280 281 281 281 280 281 281 279 278 277 276 274 274 274
273 271 269 268 266 264 263 264 264 263 262 262 262 262 262 264 266 268 269 269 269 272 274 276 277 278 278 278 280 281 281 282 282 282 281 280 280 279 276 275 273 273 273
275 272 271 270 267 264 263 264 264 262 261 261 261 262 262 264 266 267 269 269 270 272 273 276 278 278 278 278 279 281 281 282 283 283 282 282 280 279 275 274 273 272 271
275 273 271 270 267 265 265 265 264 262 260 260 260 261 262 264 266 268 269 269 270 271 273 275 277 278 279 280 279 280 281 281 282 283 284 283 281 279 277 275 274 272 271
275 274 272 269 268 269 269 267 265 264 262 261 261 262 263 264 266 267 268 268 270 270 271 274 276 279 280 280 279 280 282 282 283 282 283 283 281 278 278 277 275 273 272